Fort Knox, KY

10:31 PM EDT on May 26, 2017 (GMT -0400)
Godman Army Air Field

Weather History for KFTK - July, 2013

Change the Weather History Date:

Tuesday, July 23, 2013

  Actual Average Record
Temperature  
Mean Temperature 80 °F -  
Max Temperature 88 °F 83 °F 98 °F (1999)
Min Temperature 73 °F 65 °F 60 °F (1996)
Cooling Degree Days 15    
Growing Degree Days 30 (Base 50)    
Moisture  
Dew Point 73 °F    
Average Humidity 81    
Maximum Humidity 100    
Minimum Humidity 62    
Precipitation  
Precipitation 0.00 in - - ()
Sea Level Pressure  
Sea Level Pressure 29.82 in    
Wind  
Wind Speed 7 mph (SW)    
Max Wind Speed 9 mph    
Max Gust Speed -    
Visibility 9 miles    
Events      
Averages and records for this station are not official NWS values.
T = Trace of Precipitation, MM = Missing Value Source: NWS Daily Summary

Daily Weather History Graph

Daily Weather History Graph

Search for Another Location

Airport or City:

Trip Planner

Search our weather history database for the weather conditions in past years. The results will help you decide how hot, cold, wet, or windy it might be!

Date:

Astronomy

Jul. 23, 2013 Rise Set
Actual Time 6:39 AM EDT 9:00 PM EDT
Civil Twilight 6:09 AM EDT 9:30 PM EDT
Nautical Twilight 5:33 AM EDT 10:06 PM EDT
Astronomical Twilight 4:52 AM EDT 10:47 PM EDT
Moon 9:31 PM EDT (7/23) 7:45 AM EDT (7/23)
Length of Visible Light 15h 20m
Length of Day
14h 20m
Full, 99% of the Moon is Illuminated
Jul 23
Full
Jul 29
Last Quarter
Aug 6
New
Aug 14
First Quarter
Aug 20
Full

Hourly Weather History & Observations

Time (EDT) Temp. Heat Index Dew Point Humidity Pressure Visibility Wind Dir Wind Speed Gust Speed Precip Events Conditions
6:56 AM 73.4 °F - 73.4 °F 100% 29.84 in 2.0 mi SSW 6.9 mph - N/A   Overcast
7:05 AM 73.4 °F - 73.4 °F 100% 29.84 in 5.0 mi SSW 6.9 mph - N/A   Overcast
7:20 AM 73.4 °F - 73.4 °F 100% 29.84 in 6.0 mi SSW 5.8 mph - N/A   Overcast
7:58 AM 74.1 °F - 73.6 °F 98% 29.83 in 4.0 mi South 5.8 mph - N/A   Overcast
8:58 AM 75.7 °F - 73.8 °F 94% 29.83 in 6.0 mi SSW 4.6 mph - N/A   Mostly Cloudy
9:18 AM 77.0 °F - 73.4 °F 89% 29.85 in 10.0 mi South 5.8 mph - N/A   Mostly Cloudy
9:38 AM 77.0 °F - 73.4 °F 89% 29.85 in 10.0 mi SSW 9.2 mph - N/A   Mostly Cloudy
9:58 AM 78.4 °F - 73.8 °F 85% 29.83 in 10.0 mi South 8.1 mph - N/A   Scattered Clouds
10:07 AM 78.8 °F - 73.4 °F 83% 29.84 in 10.0 mi SSW 5.8 mph - N/A   Mostly Cloudy
10:58 AM 79.2 °F - 73.0 °F 81% 29.86 in 10.0 mi WSW 9.2 mph - N/A   Mostly Cloudy
11:13 AM 78.8 °F - 73.4 °F 83% 29.87 in 10.0 mi SSW 6.9 mph - N/A   Overcast
11:58 AM 79.2 °F - 73.0 °F 81% 29.87 in 10.0 mi SW 6.9 mph - N/A   Overcast
12:58 PM 81.0 °F 86.2 °F 73.9 °F 79% 29.86 in 10.0 mi Variable 6.9 mph - N/A   Mostly Cloudy
1:58 PM 84.7 °F 92.1 °F 74.1 °F 70% 29.84 in 10.0 mi WSW 8.1 mph - N/A   Mostly Cloudy
2:13 PM 86.0 °F 93.4 °F 73.4 °F 66% 29.83 in 10.0 mi SW 9.2 mph - N/A   Mostly Cloudy
2:58 PM 86.0 °F 93.4 °F 73.6 °F 66% 29.81 in 10.0 mi SSW 6.9 mph - N/A   Scattered Clouds
3:58 PM 86.7 °F 94.6 °F 73.6 °F 65% 29.80 in 10.0 mi SSW 6.9 mph - N/A   Mostly Cloudy
4:58 PM 87.6 °F 95.7 °F 73.6 °F 63% 29.78 in 10.0 mi SW 6.9 mph - N/A   Mostly Cloudy
5:58 PM 86.4 °F 92.6 °F 71.8 °F 62% 29.77 in 10.0 mi WSW 6.9 mph - N/A   Mostly Cloudy
6:58 PM 86.2 °F 93.4 °F 73.2 °F 65% 29.76 in 10.0 mi SW 4.6 mph - N/A   Mostly Cloudy
7:58 PM 82.0 °F 87.9 °F 73.9 °F 76% 29.75 in 10.0 mi South 3.5 mph - N/A   Clear
8:58 PM 80.1 °F 85.2 °F 75.4 °F 86% 29.77 in 7.0 mi West 4.6 mph - N/A   Partly Cloudy
9:58 PM 77.4 °F - 74.7 °F 91% 29.81 in 6.0 mi WSW 5.8 mph - N/A   Scattered Clouds
10:58 PM 75.2 °F - 68.2 °F 79% 29.82 in 10.0 mi West 5.8 mph - N/A   Clear
11:58 PM 75.4 °F - 67.1 °F 75% 29.83 in 10.0 mi West 8.1 mph - N/A   Mostly Cloudy